Temp
-16 -15 -15 -15 -15 -15 -15 -15 -15 -15 -15 -15 -15 -15 -16 -15 -15 -15 -15 -15 -15 -15 -15 -15 -15 -15 -15 -15 -16 -15 -15 -15 -15 -15 -15 -15 -15 -15 -15 -15 -15 -15 -14 -14
-16 -16 -16 -15 -15 -15 -15 -15 -15 -15 -15 -15 -15 -15 -15 -15 -15 -15 -15 -15 -15 -15 -15 -15 -15 -15 -15 -15 -15 -15 -15 -15 -15 -15 -15 -15 -15 -15 -15 -15 -15 -15 -15 -14
-17 -17 -16 -16 -16 -15 -15 -15 -15 -15 -15 -15 -15 -15 -15 -15 -15 -15 -15 -15 -15 -16 -16 -15 -15 -15 -15 -15 -15 -15 -15 -15 -15 -15 -15 -15 -15 -15 -15 -15 -15 -15 -15 -15
-18 -17 -16 -16 -16 -16 -15 -15 -15 -15 -15 -15 -15 -15 -15 -15 -15 -15 -15 -15 -15 -15 -15 -15 -15 -15 -15 -15 -15 -15 -15 -15 -15 -15 -15 -15 -15 -15 -15 -15 -15 -15 -15 -15
-18 -18 -17 -16 -16 -16 -15 -15 -14 -15 -15 -15 -15 -15 -15 -15 -15 -15 -15 -15 -15 -15 -15 -15 -15 -15 -15 -15 -15 -15 -15 -15 -15 -15 -15 -15 -15 -15 -15 -15 -15 -15 -15 -15
-18 -18 -17 -16 -16 -15 -15 -15 -15 -15 -15 -15 -15 -15 -15 -15 -15 -15 -15 -15 -15 -15 -15 -15 -15 -15 -15 -15 -15 -15 -15 -15 -15 -15 -16 -16 -15 -16 -16 -15 -15 -15 -15 -16
-19 -18 -17 -17 -16 -16 -15 -15 -15 -15 -15 -15 -15 -15 -15 -15 -15 -15 -15 -15 -15 -15 -15 -15 -14 -14 -15 -15 -15 -15 -15 -15 -15 -15 -15 -15 -15 -15 -16 -16 -16 -16 -16 -16
-18 -18 -17 -17 -16 -16 -15 -15 -15 -15 -15 -15 -15 -15 -15 -15 -15 -15 -15 -15 -15 -15 -15 -14 -14 -14 -15 -15 -15 -15 -15 -15 -16 -16 -15 -15 -15 -15 -16 -16 -16 -16 -16 -16
-18 -18 -17 -17 -16 -16 -15 -15 -15 -15 -15 -15 -16 -15 -15 -15 -15 -15 -15 -15 -15 -15 -14 -14 -14 -14 -14 -15 -15 -15 -15 -15 -16 -16 -16 -15 -15 -16 -16 -16 -16 -17 -16 -16
-18 -18 -17 -17 -16 -16 -15 -15 -16 -16 -15 -15 -16 -16 -16 -16 -15 -15 -15 -15 -15 -15 -14 -14 -14 -14 -14 -14 -15 -15 -16 -16 -16 -16 -16 -15 -16 -16 -16 -16 -16 -16 -16 -17
-18 -18 -17 -17 -16 -16 -16 -16 -16 -16 -16 -16 -15 -16 -16 -16 -16 -16 -15 -15 -15 -15 -14 -14 -14 -14 -14 -14 -14 -15 -15 -16 -16 -16 -16 -16 -16 -17 -17 -17 -17 -17 -17 -17
-19 -18 -17 -17 -16 -16 -17 -16 -16 -16 -16 -16 -16 -16 -16 -16 -16 -15 -15 -15 -15 -15 -15 -14 -14 -14 -14 -14 -14 -15 -15 -16 -16 -16 -17 -17 -17 -17 -17 -17 -17 -17 -17 -17
-19 -18 -18 -17 -17 -17 -17 -17 -16 -16 -16 -16 -16 -16 -16 -16 -15 -15 -15 -15 -15 -15 -15 -15 -15 -15 -14 -14 -14 -15 -16 -16 -16 -17 -17 -17 -17 -17 -17 -17 -18 -18 -18 -18
-19 -19 -18 -18 -18 -17 -17 -17 -17 -16 -16 -16 -16 -16 -16 -15 -15 -15 -15 -15 -15 -15 -15 -15 -15 -15 -15 -15 -15 -15 -16 -17 -17 -17 -17 -17 -18 -18 -18 -18 -18 -18 -18 -18
-19 -19 -19 -19 -18 -18 -17 -17 -17 -17 -17 -16 -16 -16 -16 -16 -16 -16 -16 -16 -16 -16 -15 -16 -16 -15 -16 -15 -15 -16 -18 -18 -17 -17 -17 -17 -18 -18 -18 -18 -19 -19 -19 -19
-19 -19 -19 -19 -19 -19 -18 -18 -18 -17 -17 -17 -17 -17 -17 -17 -17 -16 -16 -16 -16 -16 -16 -16 -16 -17 -16 -16 -16 -17 -18 -18 -18 -18 -18 -18 -18 -18 -19 -19 -19 -19 -19 -19
-19 -20 -20 -19 -19 -19 -19 -18 -18 -18 -18 -18 -17 -17 -17 -17 -17 -17 -18 -18 -17 -17 -17 -17 -17 -17 -17 -16 -16 -19 -19 -18 -18 -19 -19 -19 -19 -19 -19 -19 -19 -20 -20 -20
-19 -19 -19 -20 -19 -19 -19 -19 -19 -18 -18 -18 -18 -17 -18 -18 -18 -18 -18 -18 -18 -18 -18 -18 -18 -17 -17 -17 -18 -18 -19 -19 -20 -20 -20 -19 -19 -19 -19 -19 -20 -20 -20 -20
-20 -19 -19 -19 -19 -19 -19 -20 -19 -19 -19 -18 -18 -18 -19 -19 -19 -19 -19 -19 -18 -18 -18 -18 -18 -17 -17 -18 -18 -18 -19 -19 -19 -19 -19 -19 -19 -19 -20 -20 -20 -20 -20 -21
-20 -20 -20 -20 -20 -20 -20 -20 -19 -19 -18 -18 -18 -19 -19 -19 -20 -19 -19 -19 -19 -18 -18 -18 -18 -17 -18 -18 -19 -19 -19 -19 -19 -19 -20 -20 -20 -20 -21 -20 -20 -21 -21 -22
-20 -20 -20 -20 -20 -20 -20 -20 -19 -19 -18 -18 -18 -19 -20 -20 -20 -20 -19 -19 -18 -18 -18 -19 -18 -18 -18 -19 -19 -19 -20 -20 -20 -20 -20 -20 -20 -20 -20 -21 -21 -21 -22 -22
-20 -20 -20 -20 -20 -20 -19 -19 -19 -18 -18 -19 -19 -20 -21 -20 -20 -20 -19 -20 -19 -18 -18 -19 -18 -18 -19 -19 -19 -20 -20 -20 -20 -20 -20 -21 -21 -21 -21 -22 -22 -22 -22 -23
-20 -20 -20 -20 -20 -20 -20 -19 -19 -19 -20 -20 -20 -20 -20 -20 -20 -20 -20 -20 -20 -19 -19 -19 -19 -19 -20 -20 -20 -20 -20 -21 -21 -21 -21 -21 -21 -22 -22 -22 -23 -24 -24 -24
-20 -21 -20 -20 -20 -19 -19 -19 -20 -20 -20 -20 -20 -20 -20 -20 -20 -20 -20 -21 -20 -20 -20 -20 -21 -21 -20 -21 -21 -20 -21 -21 -21 -21 -22 -22 -23 -23 -23 -24 -24 -24 -24 -24
-20 -20 -20 -20 -20 -19 -19 -20 -20 -20 -20 -20 -20 -20 -20 -21 -21 -21 -21 -21 -21 -21 -21 -21 -21 -21 -21 -21 -22 -22 -22 -23 -23 -23 -23 -24 -24 -24 -24 -25 -25 -25 -26 -26
-20 -20 -20 -20 -20 -20 -20 -20 -20 -20 -20 -20 -20 -20 -21 -21 -21 -21 -21 -21 -21 -21 -22 -22 -22 -23 -23 -23 -23 -23 -23 -24 -24 -24 -24 -25 -25 -25 -25 -26 -26 -26 -27 -28
-21 -21 -21 -20 -20 -20 -21 -21 -21 -21 -21 -21 -21 -21 -21 -21 -21 -22 -22 -22 -23 -23 -23 -24 -24 -24 -24 -24 -24 -24 -25 -25 -25 -26 -26 -26 -26 -26 -26 -27 -28 -28 -29 -29
Height
5625 5637 5648 5659 5666 5672 5681 5690 5697 5704 5712 5719 5724 5730 5736 5740 5744 5747 5750 5751 5751 5751 5752 5754 5755 5757 5759 5761 5763 5765 5767 5769 5771 5774 5775 5777 5777 5778 5779 5779 5779 5778 5777 5778
5618 5629 5640 5652 5660 5668 5677 5687 5694 5701 5708 5716 5723 5729 5735 5740 5743 5746 5748 5749 5749 5749 5750 5752 5752 5755 5757 5759 5762 5764 5766 5769 5770 5772 5775 5776 5776 5776 5776 5776 5775 5775 5774 5773
5611 5623 5634 5646 5654 5663 5672 5683 5689 5696 5705 5714 5721 5728 5733 5739 5742 5745 5747 5748 5748 5748 5749 5750 5751 5753 5755 5758 5760 5763 5765 5767 5769 5771 5772 5773 5773 5774 5773 5773 5772 5771 5770 5768
5607 5618 5629 5640 5648 5658 5668 5678 5685 5695 5703 5711 5719 5725 5732 5737 5741 5744 5746 5747 5747 5748 5748 5748 5749 5751 5753 5757 5759 5761 5763 5765 5766 5767 5768 5769 5770 5770 5770 5769 5768 5767 5766 5763
5604 5614 5625 5635 5644 5654 5664 5675 5683 5692 5703 5711 5717 5722 5729 5735 5739 5742 5744 5745 5746 5746 5747 5747 5748 5749 5751 5753 5756 5758 5760 5762 5764 5764 5764 5765 5765 5766 5765 5764 5762 5761 5759 5757
5602 5611 5622 5631 5640 5651 5661 5672 5681 5691 5700 5706 5712 5720 5729 5734 5737 5740 5742 5744 5745 5745 5745 5746 5747 5748 5750 5752 5754 5755 5757 5759 5759 5760 5760 5759 5761 5761 5759 5757 5756 5754 5752 5748
5599 5609 5619 5628 5637 5648 5659 5670 5679 5688 5696 5702 5711 5718 5725 5730 5734 5737 5739 5741 5743 5744 5744 5744 5745 5746 5748 5749 5751 5753 5754 5755 5755 5755 5755 5751 5757 5755 5752 5749 5747 5745 5743 5739
5597 5607 5617 5626 5635 5645 5656 5666 5676 5684 5692 5701 5707 5714 5721 5726 5730 5733 5736 5738 5740 5740 5741 5742 5742 5744 5746 5746 5748 5749 5750 5750 5749 5748 5749 5747 5747 5748 5745 5740 5739 5739 5733 5728
5597 5606 5616 5625 5633 5643 5653 5663 5673 5681 5690 5698 5705 5711 5718 5722 5726 5730 5733 5734 5736 5737 5738 5739 5739 5739 5740 5741 5743 5744 5743 5743 5743 5742 5739 5737 5738 5739 5736 5731 5728 5727 5722 5719
5597 5605 5615 5623 5632 5641 5650 5660 5670 5678 5686 5694 5700 5706 5714 5718 5722 5726 5728 5730 5732 5733 5733 5734 5735 5735 5736 5736 5736 5737 5735 5734 5734 5732 5730 5728 5729 5727 5725 5721 5721 5714 5711 5707
5597 5605 5614 5623 5631 5640 5648 5658 5666 5675 5682 5690 5696 5702 5708 5712 5717 5720 5722 5725 5726 5727 5728 5729 5730 5729 5730 5730 5730 5730 5729 5727 5727 5724 5722 5719 5720 5717 5714 5710 5706 5702 5699 5695
5597 5606 5614 5621 5629 5638 5645 5654 5663 5671 5678 5685 5691 5697 5703 5707 5709 5713 5715 5719 5721 5721 5722 5723 5723 5723 5723 5723 5722 5721 5719 5719 5717 5716 5715 5710 5706 5703 5700 5698 5694 5691 5687 5682
5598 5606 5614 5621 5628 5637 5646 5651 5659 5666 5674 5680 5686 5692 5696 5700 5703 5705 5709 5711 5713 5713 5714 5714 5714 5714 5714 5713 5712 5710 5708 5707 5706 5704 5704 5698 5694 5691 5690 5685 5681 5678 5674 5670
5599 5606 5614 5620 5628 5635 5641 5649 5655 5662 5669 5675 5680 5684 5689 5693 5696 5698 5700 5702 5704 5704 5705 5705 5705 5705 5704 5704 5702 5698 5698 5697 5694 5690 5689 5685 5684 5682 5677 5674 5671 5667 5663 5659
5600 5606 5613 5620 5627 5634 5640 5646 5652 5658 5665 5670 5674 5678 5682 5685 5688 5690 5692 5693 5694 5695 5695 5695 5695 5694 5694 5692 5690 5688 5688 5685 5680 5678 5678 5675 5674 5670 5666 5663 5660 5656 5651 5646
5601 5607 5613 5619 5626 5633 5638 5643 5649 5654 5659 5665 5668 5672 5675 5677 5679 5681 5683 5684 5685 5685 5685 5685 5684 5685 5684 5680 5680 5682 5679 5673 5670 5669 5667 5664 5661 5658 5654 5651 5647 5642 5638 5632
5601 5607 5613 5618 5624 5630 5635 5641 5646 5650 5654 5658 5662 5664 5667 5670 5672 5673 5674 5675 5676 5676 5676 5676 5676 5677 5674 5672 5671 5674 5667 5663 5662 5659 5655 5654 5651 5648 5644 5640 5635 5629 5624 5619
5602 5607 5612 5618 5623 5628 5633 5637 5641 5645 5648 5652 5655 5658 5662 5663 5665 5665 5666 5667 5668 5668 5668 5668 5667 5666 5663 5662 5665 5661 5658 5655 5652 5648 5645 5642 5639 5635 5631 5627 5622 5617 5613 5608
5602 5607 5611 5617 5621 5625 5630 5634 5637 5640 5645 5646 5650 5653 5656 5656 5657 5658 5658 5658 5658 5658 5657 5657 5656 5656 5654 5653 5652 5650 5647 5644 5641 5637 5634 5631 5627 5623 5618 5614 5610 5605 5600 5596
5600 5605 5610 5614 5618 5622 5626 5629 5632 5635 5637 5640 5643 5645 5647 5650 5650 5650 5650 5648 5647 5645 5647 5645 5645 5645 5643 5642 5640 5638 5635 5631 5628 5625 5621 5617 5614 5609 5605 5601 5597 5592 5587 5582
5597 5601 5606 5610 5614 5617 5620 5622 5624 5628 5630 5633 5635 5638 5639 5640 5640 5639 5638 5636 5636 5637 5637 5635 5634 5634 5633 5630 5628 5626 5623 5620 5617 5613 5609 5605 5600 5596 5591 5586 5582 5578 5572 5567
5591 5596 5600 5604 5607 5610 5612 5612 5617 5619 5623 5626 5630 5631 5630 5629 5628 5627 5627 5627 5626 5625 5626 5623 5623 5623 5621 5619 5616 5614 5611 5608 5604 5600 5595 5591 5587 5582 5577 5572 5567 5563 5557 5552
5586 5590 5594 5596 5600 5601 5602 5604 5609 5614 5616 5618 5619 5620 5620 5619 5619 5618 5617 5615 5615 5615 5614 5611 5612 5611 5608 5606 5604 5601 5597 5593 5589 5585 5582 5578 5573 5568 5562 5557 5552 5548 5544 5539
5580 5584 5587 5589 5591 5593 5596 5600 5604 5606 5607 5608 5608 5609 5610 5610 5609 5609 5608 5606 5604 5603 5603 5603 5601 5598 5596 5593 5590 5586 5582 5578 5574 5570 5565 5560 5556 5552 5548 5544 5540 5536 5530 5524
5575 5578 5580 5582 5585 5587 5590 5593 5595 5596 5597 5598 5599 5599 5599 5600 5599 5599 5597 5596 5595 5593 5592 5590 5586 5583 5579 5576 5573 5571 5567 5563 5559 5554 5550 5546 5542 5538 5534 5529 5525 5520 5514 5508
5569 5571 5573 5576 5579 5581 5582 5583 5585 5587 5587 5588 5589 5589 5589 5588 5587 5587 5586 5584 5583 5582 5579 5575 5572 5569 5565 5562 5559 5556 5552 5548 5544 5540 5536 5532 5527 5523 5518 5513 5509 5503 5497 5492
5560 5563 5565 5568 5570 5572 5573 5574 5575 5576 5577 5578 5577 5577 5576 5575 5573 5573 5572 5571 5569 5567 5565 5561 5558 5556 5552 5549 5545 5541 5538 5535 5531 5527 5523 5518 5513 5509 5504 5500 5494 5488 5482 5477
Wind_Speed
52 47 43 41 39 32 43 46 46 43 39 38 35 33 30 23 19 16 10 7 8 11 11 12 14 15 15 14 16 16 15 17 15 14 13 10 8 7 7 7 8 8 8 6
53 49 45 43 40 36 45 49 49 45 41 39 37 36 33 23 18 13 6 5 6 9 10 13 15 16 16 17 18 18 17 18 19 16 14 12 9 7 8 9 10 10 12 14
52 48 46 45 40 42 48 54 52 48 43 40 39 37 32 25 20 13 7 5 5 9 12 15 16 16 18 19 19 18 19 18 17 15 16 16 13 12 14 15 16 16 18 19
49 47 45 45 41 45 50 56 52 47 43 42 41 38 32 26 20 14 8 4 4 6 9 13 16 17 19 20 19 19 20 19 19 18 18 18 18 18 19 20 21 21 22 22
46 44 43 45 41 47 52 57 51 47 43 41 41 39 34 27 21 15 8 5 6 5 7 10 14 17 20 21 20 21 22 21 22 21 21 21 22 22 23 24 26 27 27 27
45 42 44 44 42 49 53 58 53 47 45 44 44 39 32 27 23 18 13 9 9 8 7 9 13 17 20 22 23 24 24 25 25 27 26 28 27 23 28 29 30 32 32 33
43 42 43 43 41 50 53 57 54 49 47 46 42 38 34 32 28 22 18 14 12 12 11 11 14 16 19 22 23 24 25 28 31 32 31 35 27 29 32 35 36 34 36 39
41 39 41 41 41 52 55 56 55 51 48 45 44 40 35 33 29 25 21 19 18 16 15 14 15 17 18 19 22 25 28 30 33 36 37 39 37 34 37 40 40 37 42 44
38 39 38 38 42 52 57 56 54 52 48 45 43 41 36 35 32 28 25 25 22 21 19 18 17 17 19 22 23 23 26 30 34 37 40 43 41 40 42 45 46 43 46 46
36 35 35 37 42 52 57 54 52 51 49 47 45 42 36 36 34 32 30 29 27 25 24 23 22 21 20 21 23 26 29 31 35 38 42 46 44 45 45 48 48 51 49 48
33 34 34 36 42 50 55 51 52 50 48 47 45 42 39 38 36 35 34 33 31 30 29 29 28 28 26 25 25 26 30 34 36 39 43 46 44 47 48 49 50 50 50 50
31 32 29 34 40 43 46 50 51 50 48 47 45 42 40 39 39 38 38 36 33 34 34 34 33 33 31 31 33 33 35 35 39 41 42 45 48 49 50 49 49 48 50 50
31 38 29 35 37 35 34 43 50 50 48 46 44 42 42 40 40 40 38 38 37 38 39 38 37 38 38 39 40 40 39 41 42 42 41 44 47 49 47 48 48 48 48 48
30 33 30 35 40 50 42 37 41 45 46 45 44 43 42 41 41 40 39 39 40 41 41 41 42 43 44 44 44 45 42 39 40 43 42 44 43 42 45 46 45 46 46 48
26 27 26 28 35 41 43 44 42 40 41 42 41 41 41 40 40 40 40 41 42 41 42 42 42 43 43 43 43 41 35 35 40 42 41 41 41 42 42 43 42 46 49 51
33 29 27 26 28 32 35 36 37 37 38 38 38 38 38 38 38 40 40 40 39 39 38 37 38 35 37 41 39 33 32 38 40 40 40 40 40 41 42 44 48 51 54 56
34 31 28 25 25 25 28 29 28 28 29 31 33 34 34 34 33 32 31 31 30 32 32 31 31 30 35 38 40 29 34 38 39 40 43 43 44 48 50 52 54 56 54 54
27 28 28 28 27 24 23 24 25 26 27 27 28 28 26 27 27 28 28 28 29 30 31 33 34 38 40 42 36 36 38 40 41 44 46 49 50 52 54 56 54 50 51 52
29 27 25 25 25 24 24 24 25 26 27 28 28 28 27 28 28 29 29 31 33 35 36 36 37 38 39 38 39 40 41 43 45 48 50 53 53 52 50 48 49 53 53 50
29 28 28 26 26 25 26 27 28 29 30 31 31 31 31 30 30 31 32 34 36 39 38 40 42 42 43 43 43 44 45 47 48 48 50 50 49 48 49 51 53 54 53 54
35 34 33 32 32 33 34 36 36 35 36 36 35 31 30 30 32 33 36 40 42 44 44 43 43 41 39 40 40 41 43 45 47 49 49 51 53 55 56 57 58 56 55 53
40 39 38 38 37 37 40 41 39 38 36 36 34 31 31 33 35 38 40 40 42 44 42 42 42 41 39 40 43 45 46 48 48 50 53 53 54 55 55 55 55 55 54 52
43 40 36 36 39 42 44 43 41 40 37 35 33 32 33 36 37 35 34 36 38 38 41 43 44 42 43 44 44 45 46 47 50 52 53 57 56 56 55 53 51 50 50 55
33 33 34 35 37 37 36 34 33 34 34 35 36 35 35 33 35 35 35 38 40 43 44 42 43 47 48 49 51 52 55 57 58 58 56 56 53 53 53 48 50 53 55 60
27 30 33 34 34 35 35 35 34 34 35 35 36 36 35 34 36 38 41 42 42 46 48 50 50 53 54 54 55 56 54 52 50 51 52 54 54 53 50 50 52 53 54 55
28 29 31 33 34 35 36 37 36 37 38 39 40 41 43 43 44 46 47 48 50 50 49 49 49 49 50 52 50 50 52 53 53 52 51 52 52 52 53 54 57 59 58 56
31 32 33 35 37 39 40 40 41 41 42 45 47 47 46 48 49 49 48 48 47 47 47 47 49 50 47 47 48 49 51 50 48 50 51 52 54 56 56 56 56 56 58 59
Wind_Direction
190 193 196 197 194 192 184 184 179 179 183 184 183 185 181 173 177 190 201 224 244 238 226 223 221 221 224 212 202 209 201 199 201 195 199 203 197 210 234 251 262 275 286 311
189 191 193 194 191 189 185 185 180 183 186 186 184 187 187 189 193 203 220 254 245 229 217 215 216 219 219 212 207 206 206 202 198 194 198 206 217 239 267 267 277 284 295 302
187 190 189 191 188 188 186 187 184 185 188 187 188 191 193 197 200 207 238 262 253 234 222 218 217 218 212 207 205 205 206 201 202 208 210 221 233 251 269 275 278 282 291 298
187 188 188 189 187 189 187 188 187 190 188 188 191 194 197 201 204 217 231 291 318 239 228 218 217 211 207 204 209 210 210 210 214 220 224 233 239 252 265 273 277 282 290 298
187 187 188 188 187 189 188 190 189 191 188 191 198 198 200 204 208 219 239 280 304 289 245 227 213 208 205 208 213 215 218 222 226 228 235 243 249 259 270 274 278 283 291 296
189 188 189 187 188 190 188 191 191 190 191 195 201 202 205 205 213 226 245 267 284 292 283 247 227 220 221 221 222 222 225 229 235 238 245 252 256 268 273 276 278 285 292 294
189 187 188 188 188 191 189 193 192 193 195 199 204 206 208 211 218 228 245 265 280 284 286 266 246 239 235 235 235 237 238 240 244 248 252 258 264 267 276 280 283 287 291 294
186 187 188 188 189 193 190 193 194 196 199 202 207 210 214 220 228 236 245 261 271 281 285 282 270 259 254 253 251 251 251 253 256 258 261 266 268 273 275 279 281 291 292 292
184 187 186 189 191 195 192 194 197 200 203 206 211 217 218 227 234 241 252 259 268 276 280 283 283 276 271 261 260 259 258 258 259 263 266 269 272 274 278 281 285 289 288 294
186 183 187 191 193 197 194 195 199 203 207 210 215 220 222 230 237 244 251 259 265 270 276 279 279 275 273 270 269 262 264 265 265 266 270 275 277 279 281 282 285 287 291 292
182 184 190 192 193 198 197 196 202 204 208 213 218 223 227 234 240 246 252 255 262 267 272 276 279 279 280 281 277 272 269 268 269 270 273 276 279 281 281 283 286 289 290 291
182 183 190 191 190 195 200 201 205 208 210 215 220 224 230 234 240 245 252 257 263 267 271 273 275 278 280 280 280 278 277 276 276 275 279 281 283 283 284 286 287 288 289 291
186 190 189 186 184 183 191 205 208 211 216 219 223 228 233 239 245 252 255 258 260 263 267 272 275 276 279 282 284 284 283 284 285 285 284 282 282 285 288 287 288 290 291 293
188 184 183 181 183 182 184 194 208 213 217 223 226 231 235 241 246 251 256 258 260 264 267 270 274 277 279 281 283 283 286 288 287 285 285 283 284 285 285 287 289 291 292 295
175 171 172 184 188 193 200 211 216 217 219 223 227 233 237 242 246 251 256 259 262 264 267 270 274 276 280 283 284 288 291 289 283 286 286 288 288 286 286 287 290 293 295 296
182 173 176 182 188 195 202 208 215 219 224 229 233 237 241 246 250 254 257 261 265 269 273 274 277 283 283 284 286 289 286 281 282 287 288 289 289 289 290 292 295 297 297 298
185 184 185 190 195 197 201 207 213 220 226 230 235 239 243 248 252 256 259 262 264 266 269 273 276 277 276 281 285 290 279 279 281 283 285 287 289 290 290 292 295 297 297 298
188 191 192 193 196 200 204 206 211 216 222 229 235 242 246 251 254 256 260 265 268 271 273 275 277 278 279 283 285 279 279 281 281 283 286 289 291 291 292 294 295 296 298 300
195 198 202 205 208 211 214 217 222 228 232 236 240 245 249 253 261 267 271 273 272 272 274 273 276 281 285 286 284 282 280 281 282 283 285 287 288 291 292 293 294 295 296 295
210 213 216 218 222 226 229 232 235 238 242 246 250 254 260 264 267 266 267 266 266 271 272 277 281 285 284 283 282 282 282 284 285 286 287 290 292 292 293 294 295 295 294 294
217 221 225 227 229 232 236 239 240 243 245 248 253 262 271 273 272 269 266 267 270 271 273 277 282 284 283 280 278 281 283 284 285 286 288 289 290 290 291 292 294 293 291 292
223 224 226 228 230 234 237 240 242 247 250 258 267 272 269 267 268 269 268 269 270 273 277 278 281 283 283 283 282 283 284 284 285 285 285 287 290 292 293 293 292 293 297 299
224 226 229 234 236 239 243 248 250 256 261 263 264 260 260 265 269 270 272 273 275 277 277 281 284 287 285 286 287 286 285 285 286 287 286 289 290 291 295 298 302 302 292 278
229 232 239 239 240 242 247 254 259 261 261 264 265 264 266 265 264 265 268 272 275 276 278 282 284 284 285 287 288 289 289 290 292 294 294 294 295 296 298 297 291 282 276 286
231 235 239 243 246 250 253 257 260 259 257 258 261 264 266 265 264 267 271 272 273 278 283 286 287 289 290 289 288 289 291 290 288 288 289 291 292 292 290 287 285 285 285 284
238 240 243 248 252 254 256 258 259 259 259 260 262 263 264 264 266 269 272 274 278 282 284 285 287 288 287 288 288 287 288 290 290 292 292 291 290 289 287 283 284 289 299 305
247 245 243 243 245 246 249 254 256 258 260 262 264 266 270 272 273 276 279 282 283 285 285 284 284 285 286 283 278 279 283 286 287 285 284 284 285 288 294 299 302 305 305 305